Weather reports worldwide

Advertisment
Capo Carbonara, Italy (16564): temperature & dewpoint: 11.01.2018 00:00:00 - 17.01.2018 00:00:00 (CET)Capo Carbonara, Italy (16564): wind speed: 11.01.2018 00:00:00 - 17.01.2018 00:00:00 (CET)Capo Carbonara, Italy (16564): wind direction: 11.01.2018 00:00:00 - 17.01.2018 00:00:00 (CET)Capo Carbonara, Italy (16564): reduced air pressure: 11.01.2018 00:00:00 - 17.01.2018 00:00:00 (CET)Capo Carbonara, Italy (16564): visibility: 11.01.2018 00:00:00 - 17.01.2018 00:00:00 (CET)
Date & Time tt [°C] td [°C] ff [km/h] ff [kn] dd ppp [hPa] vv [km]
17.01.2018 00:00:00 - - - - - - -
16.01.2018 23:00:00 14,0 11,0 67 36 WSW - 10
16.01.2018 22:00:00 13,8 12,0 74 40 WSW 1016,6 18
16.01.2018 21:00:00 14,0 11,0 83 45 WSW - 10
16.01.2018 20:00:00 14,0 12,0 72 39 WSW - 10
16.01.2018 19:00:00 14,0 11,5 70 38 WSW 1017,7 20
16.01.2018 18:00:00 14,0 11,0 70 38 WSW - 10
16.01.2018 17:00:00 15,0 12,0 67 36 WSW - 10
16.01.2018 16:00:00 15,0 9,8 67 36 WSW 1018,9 20
16.01.2018 15:00:00 15,0 10,0 63 34 WSW - 10
16.01.2018 14:00:00 15,0 10,0 78 42 WSW - 10
16.01.2018 13:00:00 15,0 8,0 74 40 WSW 1019,9 20
16.01.2018 12:00:00 14,0 10,0 57 31 WSW - 10
16.01.2018 11:00:00 13,0 9,0 54 29 WSW - 10
16.01.2018 10:00:00 11,2 8,2 41 22 WSW 1022,1 20
16.01.2018 09:00:00 11,0 9,0 59 32 WSW - 10
16.01.2018 08:00:00 11,0 9,0 37 20 WSW - 10
16.01.2018 07:00:00 11,0 8,2 46 25 WSW 1022,4 20
16.01.2018 06:00:00 11,0 8,0 39 21 WSW - 10
16.01.2018 05:00:00 11,0 8,0 41 22 WSW - 10
16.01.2018 04:00:00 11,0 8,6 48 26 WSW 1023,4 20
16.01.2018 03:00:00 11,0 9,0 41 22 WSW - 10
16.01.2018 02:00:00 11,0 9,0 41 22 WSW - 10
16.01.2018 01:00:00 11,0 8,9 48 26 W 1024,4 20
16.01.2018 00:00:00 11,0 9,0 34 18 WSW - 10
15.01.2018 23:00:00 12,0 9,0 35 19 WSW - 10
15.01.2018 22:00:00 12,0 9,5 35 19 W 1023,5 20
15.01.2018 21:00:00 12,0 9,0 22 12 W - 10
15.01.2018 20:00:00 12,0 10,0 24 13 W - 10
15.01.2018 19:00:00 13,0 10,5 24 13 WSW 1023,3 20
15.01.2018 18:00:00 13,0 11,0 18 10 WSW - 10
15.01.2018 17:00:00 15,0 12,0 15 8 SSW - 10
15.01.2018 16:00:00 16,0 11,6 21 11 SW 1022,3 20
15.01.2018 15:00:00 16,0 12,0 21 11 SW - 10
15.01.2018 14:00:00 16,0 10,0 22 12 SW - 10
15.01.2018 13:00:00 15,6 11,2 22 12 WSW 1023,3 20
15.01.2018 12:00:00 14,0 9,0 22 12 SW - 10
15.01.2018 11:00:00 13,0 10,0 13 7 WSW - 10
15.01.2018 10:00:00 12,0 9,4 15 8 WSW 1022,4 20
15.01.2018 09:00:00 11,0 9,0 16 9 WSW - 10
15.01.2018 08:00:00 11,0 9,0 13 7 SSW - 10
15.01.2018 07:00:00 11,0 9,1 5 3 SSW 1020,6 20
15.01.2018 06:00:00 12,0 10,0 26 14 SW - 10
15.01.2018 05:00:00 12,0 9,0 5 3 SW - 10
15.01.2018 04:00:00 11,8 9,7 2 1 NNE 1020,4 20
15.01.2018 03:00:00 12,0 9,0 5 3 WNW - 10
15.01.2018 02:00:00 12,0 8,0 13 7 W - 10
15.01.2018 01:00:00 11,8 8,5 11 6 W 1020,9 20
15.01.2018 00:00:00 12,0 8,0 13 7 WSW - 10
14.01.2018 23:00:00 12,0 9,0 9 5 W - 10
14.01.2018 22:00:00 12,0 9,2 8 4 WSW 1019,7 20
14.01.2018 21:00:00 12,0 10,0 8 4 SW - 10
14.01.2018 20:00:00 12,0 10,0 8 4 SW - 10
14.01.2018 19:00:00 12,2 9,4 11 6 S 1019,1 20
14.01.2018 18:00:00 15,0 12,0 9 5 S - 10
14.01.2018 17:00:00 16,0 10,0 11 6 S - 10
14.01.2018 16:00:00 16,0 7,7 13 7 SSE 1018,3 20
14.01.2018 15:00:00 16,0 9,0 11 6 S - 10
14.01.2018 14:00:00 15,0 10,0 8 4 E - 10
14.01.2018 13:00:00 14,2 9,2 5 3 E 1019,0 20
14.01.2018 12:00:00 14,0 10,0 11 6 ENE - 10
14.01.2018 11:00:00 14,0 10,0 11 6 E - 10
14.01.2018 10:00:00 12,2 9,2 9 5 E 1019,2 20
14.01.2018 09:00:00 12,0 9,0 9 5 NE - 10
14.01.2018 08:00:00 12,0 9,0 13 7 NE - 10
14.01.2018 07:00:00 12,0 9,2 15 8 NE 1018,5 18
14.01.2018 06:00:00 12,0 9,0 13 7 NE - 10
14.01.2018 05:00:00 12,0 9,0 15 8 NE - 10
14.01.2018 04:00:00 12,0 9,4 16 9 NE 1018,6 18
14.01.2018 03:00:00 12,0 9,0 16 9 NE - 10
14.01.2018 02:00:00 12,0 9,0 16 9 NE - 10
14.01.2018 01:00:00 12,0 9,4 18 10 NNE 1019,3 20
14.01.2018 00:00:00 12,0 9,0 18 10 NNE - 10
13.01.2018 23:00:00 12,0 9,0 16 9 NNE - 10
13.01.2018 22:00:00 12,0 9,5 16 9 NE 1019,7 18
13.01.2018 21:00:00 12,0 10,0 15 8 NE - 10
13.01.2018 20:00:00 12,0 10,0 15 8 NE - 10
13.01.2018 19:00:00 13,6 10,8 0 0 N 1019,4 20
13.01.2018 18:00:00 14,0 11,0 13 7 SW - 10
13.01.2018 17:00:00 14,0 11,0 18 10 SSW - 10
13.01.2018 16:00:00 14,0 11,0 15 8 S 1019,2 18
13.01.2018 15:00:00 14,0 10,0 11 6 S - 10
13.01.2018 14:00:00 15,0 8,0 11 6 SSW - 10
13.01.2018 13:00:00 14,2 8,2 9 5 WNW 1019,1 20
13.01.2018 12:00:00 14,0 9,0 9 5 SW - 10
13.01.2018 11:00:00 13,0 8,0 4 2 NE - 10
13.01.2018 10:00:00 10,8 7,5 2 1 W 1019,6 25
13.01.2018 09:00:00 11,0 6,0 2 1 NW - 10
13.01.2018 08:00:00 11,0 7,0 5 3 NE - 10
13.01.2018 07:00:00 10,8 6,7 15 8 NE 1018,5 18
13.01.2018 06:00:00 11,0 7,0 8 4 NNE - 10
13.01.2018 05:00:00 11,0 7,0 5 3 W - 10
13.01.2018 04:00:00 11,0 7,3 5 3 W 1018,2 16
13.01.2018 03:00:00 11,0 7,0 9 5 N - 10
13.01.2018 02:00:00 11,0 8,0 9 5 NNE - 10
13.01.2018 01:00:00 11,2 6,7 8 4 NW 1018,0 16
13.01.2018 00:00:00 11,0 7,0 13 7 NNW - 10
12.01.2018 23:00:00 11,0 7,0 13 7 N - 10
12.01.2018 22:00:00 11,4 6,9 18 10 NW 1017,2 16
12.01.2018 21:00:00 11,0 7,0 26 14 N - 10
12.01.2018 20:00:00 11,0 7,0 22 12 N - 10
12.01.2018 19:00:00 10,6 7,1 28 15 N 1014,9 16
12.01.2018 18:00:00 11,0 6,0 34 18 N - 10
12.01.2018 17:00:00 - - - - - - -
12.01.2018 16:00:00 11,0 6,2 29 16 N 1012,2 18
12.01.2018 15:00:00 11,0 8,0 18 10 N - 10
12.01.2018 14:00:00 11,0 8,0 26 14 N - 10
12.01.2018 13:00:00 11,2 8,8 21 11 NNW 1010,6 15
12.01.2018 12:00:00 11,0 9,0 34 18 N - 10
12.01.2018 11:00:00 10,0 5,0 22 12 N - 10
12.01.2018 10:00:00 10,0 5,6 16 9 N 1010,1 18
12.01.2018 09:00:00 10,0 8,0 22 12 W - 10
12.01.2018 08:00:00 10,0 7,0 9 5 WNW - 10
12.01.2018 07:00:00 10,0 6,5 9 5 W 1008,4 18
12.01.2018 06:00:00 10,0 6,0 15 8 N - 10
12.01.2018 05:00:00 10,0 6,0 22 12 W - 10
12.01.2018 04:00:00 10,2 7,3 21 11 W 1008,0 18
12.01.2018 03:00:00 10,0 7,0 21 11 W - 10
12.01.2018 02:00:00 10,0 7,0 15 8 W - 10
12.01.2018 01:00:00 10,0 6,4 18 10 W 1007,6 18
12.01.2018 00:00:00 10,0 7,0 11 6 NNW - 10
11.01.2018 23:00:00 10,0 6,0 24 13 W - 10
11.01.2018 22:00:00 10,0 6,4 18 10 WSW 1007,7 18
11.01.2018 21:00:00 10,0 7,0 22 12 W - 10
11.01.2018 20:00:00 10,0 7,0 22 12 WNW - 10
11.01.2018 19:00:00 10,2 7,1 34 18 WSW 1007,4 18
11.01.2018 18:00:00 11,0 7,0 35 19 WSW - 10
11.01.2018 17:00:00 11,0 7,0 22 12 WSW - 10
11.01.2018 16:00:00 11,2 7,5 34 18 WSW 1007,9 20
11.01.2018 15:00:00 11,0 9,0 31 17 WSW - 10
11.01.2018 14:00:00 11,0 8,0 28 15 SW - 10
11.01.2018 13:00:00 11,6 8,6 22 12 SW 1009,4 18
11.01.2018 12:00:00 11,0 8,0 28 15 WSW - 10
11.01.2018 11:00:00 12,0 8,0 21 11 WSW - 10
11.01.2018 10:00:00 11,8 7,7 15 8 WSW 1010,9 20
11.01.2018 09:00:00 12,0 7,0 31 17 WSW - 10
11.01.2018 08:00:00 12,0 7,0 29 16 W - 10
11.01.2018 07:00:00 12,0 7,7 42 23 W 1010,0 20
11.01.2018 06:00:00 12,0 8,0 42 23 WSW - 10
11.01.2018 05:00:00 12,0 8,0 34 18 WSW - 10
11.01.2018 04:00:00 11,6 7,7 42 23 SW 1011,3 18
11.01.2018 03:00:00 12,0 8,0 37 20 SSW - 10
11.01.2018 02:00:00 12,0 8,0 48 26 SW - 10
11.01.2018 01:00:00 12,0 8,5 42 23 SW 1013,5 18
11.01.2018 00:00:00 12,0 9,0 44 24 SW - 10

tt = temperature
td = dewpoint
ff = wind speed
dd = wind direction
ppp = reduced air pressure
vv = visibility

Next stations